• In Latvia
  • List of Countries
  • For 7 days
  • Water Temperature
  • Satellite Maps
  • Weather Map
  • Weather Widgets
  • user-avatar
    Login

    Hourly Weather Wagadugu

    Today, 22 October, Sunday

    Time Temperature Precipitation Wind Pressure Humidity
    00:00 +28°C° 0 mm 1 mps 733 mmHg 22%
    01:00 +27°C° 0 mm 1 mps 733 mmHg 23%
    02:00 +27°C° 0 mm 1 mps 733 mmHg 24%
    03:00 +27°C° 0 mm 2 mps 733 mmHg 24%
    04:00 +26°C° 0 mm 2 mps 733 mmHg 27%
    05:00 +25°C° 0 mm 2 mps 733 mmHg 29%
    06:00 +25°C° 0 mm 2 mps 733 mmHg 40%
    07:00 +28°C° 0 mm 2 mps 733 mmHg 36%
    08:00 +31°C° 0 mm 2 mps 734 mmHg 32%
    09:00 +35°C° 0 mm 3 mps 734 mmHg 29%
    10:00 +37°C° 0 mm 2 mps 734 mmHg 24%
    11:00 +39°C° 0 mm 2 mps 733 mmHg 19%
    12:00 +41°C° 0 mm 1 mps 733 mmHg 14%
    13:00 +41°C° 0 mm 2 mps 732 mmHg 13%
    14:00 +41°C° 0 mm 2 mps 732 mmHg 11%
    15:00 +42°C° 0 mm 2 mps 731 mmHg 10%
    16:00 +40°C° 0 mm 3 mps 731 mmHg 12%
    17:00 +38°C° 0 mm 3 mps 731 mmHg 13%
    18:00 +36°C° 0 mm 3 mps 731 mmHg 15%
    19:00 +35°C° 0 mm 3 mps 731 mmHg 16%
    20:00 +33°C° 0 mm 3 mps 732 mmHg 17%
    21:00 +31°C° 0 mm 3 mps 732 mmHg 19%
    22:00 +30°C° 0 mm 2 mps 732 mmHg 19%
    23:00 +29°C° 0 mm 2 mps 732 mmHg 20%

    Tomorrow, 23 October, Monday

    Time Temperature Precipitation Wind Pressure Humidity
    00:00 +28°C° 0 mm 1 mps 732 mmHg 20%
    01:00 +28°C° 0 mm 1 mps 732 mmHg 20%
    02:00 +27°C° 0 mm 1 mps 731 mmHg 20%
    03:00 +26°C° 0 mm 1 mps 731 mmHg 20%
    04:00 +26°C° 0 mm 1 mps 731 mmHg 20%
    05:00 +26°C° 0 mm 1 mps 731 mmHg 21%
    06:00 +26°C° 0 mm 2 mps 731 mmHg 21%
    07:00 +29°C° 0 mm 2 mps 732 mmHg 19%
    08:00 +32°C° 0 mm 2 mps 732 mmHg 17%
    09:00 +36°C° 0 mm 2 mps 733 mmHg 15%
    10:00 +38°C° 0 mm 2 mps 733 mmHg 13%
    11:00 +39°C° 0 mm 2 mps 732 mmHg 11%
    12:00 +41°C° 0 mm 2 mps 732 mmHg 9%
    13:00 +41°C° 0 mm 2 mps 731 mmHg 8%
    14:00 +41°C° 0 mm 2 mps 730 mmHg 8%
    15:00 +42°C° 0 mm 2 mps 730 mmHg 7%
    16:00 +39°C° 0 mm 2 mps 730 mmHg 8%
    17:00 +37°C° 0 mm 2 mps 730 mmHg 9%
    18:00 +35°C° 0 mm 2 mps 730 mmHg 10%
    19:00 +34°C° 0 mm 2 mps 730 mmHg 11%
    20:00 +32°C° 0 mm 2 mps 731 mmHg 12%
    21:00 +31°C° 0 mm 2 mps 731 mmHg 13%
    22:00 +30°C° 0 mm 2 mps 731 mmHg 15%
    23:00 +29°C° 0 mm 2 mps 731 mmHg 17%

    Day after tomorrow, 24 October, Tuesday

    Time Temperature Precipitation Wind Pressure Humidity
    00:00 +28°C° 0 mm 2 mps 731 mmHg 19%
    01:00 +28°C° 0 mm 2 mps 731 mmHg 21%
    02:00 +27°C° 0 mm 2 mps 731 mmHg 24%
    03:00 +26°C° 0 mm 2 mps 730 mmHg 26%
    04:00 +26°C° 0 mm 2 mps 730 mmHg 30%
    05:00 +26°C° 0 mm 2 mps 731 mmHg 34%
    06:00 +26°C° 0 mm 2 mps 731 mmHg 38%
    07:00 +29°C° 0 mm 3 mps 732 mmHg 37%
    08:00 +33°C° 0 mm 4 mps 732 mmHg 36%
    09:00 +35°C° 0 mm 4 mps 733 mmHg 35%
    10:00 +37°C° 0 mm 3 mps 732 mmHg 29%
    11:00 +39°C° 0 mm 2 mps 732 mmHg 22%
    12:00 +41°C° 0 mm 1 mps 731 mmHg 16%
    13:00 +41°C° 0 mm 1 mps 731 mmHg 14%
    14:00 +42°C° 0 mm 1 mps 730 mmHg 13%
    15:00 +42°C° 0 mm 1 mps 729 mmHg 11%
    16:00 +40°C° 0 mm 1 mps 729 mmHg 12%
    17:00 +38°C° 0 mm 2 mps 729 mmHg 12%
    18:00 +36°C° 0 mm 2 mps 730 mmHg 13%
    19:00 +35°C° 0 mm 2 mps 730 mmHg 13%
    20:00 +35°C° 0 mm 2 mps 731 mmHg 13%
    21:00 +34°C° 0 mm 2 mps 731 mmHg 13%
    22:00 +32°C° 0 mm 2 mps 731 mmHg 15%
    23:00 +31°C° 0 mm 2 mps 731 mmHg 18%

    25 October, Wednesday

    Time Temperature Precipitation Wind Pressure Humidity
    00:00 +30°C° 0 mm 2 mps 731 mmHg 20%
    01:00 +29°C° 0 mm 2 mps 731 mmHg 23%
    02:00 +29°C° 0 mm 1 mps 730 mmHg 26%
    03:00 +28°C° 0 mm 1 mps 730 mmHg 30%
    04:00 +28°C° 0 mm 1 mps 730 mmHg 32%
    05:00 +27°C° 0 mm 1 mps 730 mmHg 34%
    06:00 +27°C° 0 mm 1 mps 731 mmHg 36%
    07:00 +30°C° 0 mm 2 mps 731 mmHg 32%
    08:00 +34°C° 0 mm 2 mps 732 mmHg 29%
    09:00 +37°C° 0 mm 3 mps 733 mmHg 25%
    10:00 +39°C° 0 mm 2 mps 732 mmHg 22%
    11:00 +40°C° 0 mm 2 mps 732 mmHg 19%
    12:00 +42°C° 0 mm 2 mps 731 mmHg 16%
    13:00 +42°C° 0 mm 2 mps 730 mmHg 16%
    14:00 +42°C° 0 mm 2 mps 730 mmHg 15%
    15:00 +42°C° 0 mm 2 mps 729 mmHg 15%
    16:00 +41°C° 0 mm 2 mps 729 mmHg 18%
    17:00 +39°C° 0 mm 3 mps 730 mmHg 21%
    18:00 +38°C° 0 mm 4 mps 730 mmHg 24%
    19:00 +37°C° 0 mm 3 mps 730 mmHg 28%
    20:00 +35°C° 0 mm 3 mps 731 mmHg 32%
    21:00 +34°C° 0 mm 2 mps 732 mmHg 35%
    22:00 +34°C° 0 mm 3 mps 732 mmHg 37%
    23:00 +33°C° 0 mm 3 mps 732 mmHg 40%

    26 October, Thursday

    Time Temperature Precipitation Wind Pressure Humidity
    00:00 +33°C° 0 mm 3 mps 732 mmHg 42%
    01:00 +31°C° 0 mm 2 mps 731 mmHg 45%
    02:00 +30°C° 0 mm 2 mps 731 mmHg 48%
    03:00 +29°C° 0 mm 1 mps 731 mmHg 51%
    04:00 +29°C° 0 mm 1 mps 731 mmHg 52%
    05:00 +29°C° 0 mm 2 mps 732 mmHg 52%
    06:00 +29°C° 0 mm 2 mps 732 mmHg 53%
    07:00 +31°C° 0 mm 3 mps 733 mmHg 49%
    08:00 +34°C° 0 mm 4 mps 733 mmHg 46%
    09:00 +36°C° 0 mm 5 mps 734 mmHg 42%
    10:00 +37°C° 0 mm 4 mps 733 mmHg 37%
    11:00 +39°C° 0 mm 3 mps 732 mmHg 33%
    12:00 +40°C° 0 mm 2 mps 732 mmHg 28%
    13:00 +40°C° 0 mm 2 mps 731 mmHg 26%
    14:00 +40°C° 0 mm 2 mps 731 mmHg 24%
    15:00 +42°C° 0 mm 3 mps 730 mmHg 22%
    16:00 +39°C° 0 mm 3 mps 730 mmHg 24%
    17:00 +38°C° 0 mm 2 mps 731 mmHg 26%
    18:00 +37°C° 0 mm 2 mps 731 mmHg 28%
    19:00 +37°C° 0 mm 2 mps 731 mmHg 31%
    20:00 +36°C° 0 mm 2 mps 732 mmHg 33%
    21:00 +35°C° 0 mm 2 mps 732 mmHg 36%
    22:00 +34°C° 0 mm 2 mps 732 mmHg 38%
    23:00 +32°C° 0 mm 2 mps 732 mmHg 41%

    27 October, Friday

    Time Temperature Precipitation Wind Pressure Humidity
    00:00 +32°C° 0 mm 2 mps 732 mmHg 43%
    01:00 +31°C° 0 mm 1 mps 731 mmHg 45%
    02:00 +30°C° 0 mm 1 mps 731 mmHg 48%
    03:00 +29°C° 0 mm 1 mps 731 mmHg 50%
    04:00 +29°C° 0 mm 1 mps 731 mmHg 51%
    05:00 +29°C° 0 mm 1 mps 732 mmHg 51%
    06:00 +28°C° 0 mm 1 mps 732 mmHg 52%
    07:00 +31°C° 0 mm 3 mps 732 mmHg 42%
    08:00 +35°C° 0 mm 4 mps 733 mmHg 32%
    09:00 +39°C° 0 mm 5 mps 733 mmHg 22%
    10:00 +41°C° 0 mm 6 mps 733 mmHg 18%
    11:00 +42°C° 0 mm 6 mps 732 mmHg 14%
    12:00 +44°C° 0 mm 6 mps 731 mmHg 10%
    13:00 +45°C° 0 mm 6 mps 731 mmHg 9%
    14:00 +45°C° 0 mm 6 mps 730 mmHg 9%
    15:00 +45°C° 0 mm 6 mps 729 mmHg 8%
    16:00 +42°C° 0 mm 5 mps 730 mmHg 9%
    17:00 +40°C° 0 mm 5 mps 730 mmHg 10%
    18:00 +36°C° 0 mm 4 mps 730 mmHg 11%
    19:00 +35°C° 0 mm 4 mps 731 mmHg 12%
    20:00 +34°C° 0 mm 4 mps 731 mmHg 13%
    21:00 +33°C° 0 mm 4 mps 732 mmHg 14%
    22:00 +32°C° 0 mm 4 mps 731 mmHg 15%
    23:00 +32°C° 0 mm 4 mps 731 mmHg 15%
    Show more